Location: Allen Generating Plant
(35.0740°N, 90.1490°W)
Time: 08:55:13
(UTC+00:00)

Explorer 11/Cluster Stage 4 - Pass Details

Date: 07 November 2024
Orbit: 464 x 1202 km, 28.8° (Epoch: 06 December)

Event Time Altitude Azimuth Distance (km) Brightness Sun altitude
Rises 11:37:20 0° 213° (SSW) 2,607 9.1 -10.8°
Reaches altitude 10° 11:41:18 10° 173° (S) 1,631 8.5 -10.0°
Maximum altitude 11:42:08 11° 160° (SSE) 1,583 8.6 -9.8°
Drops below altitude 10° 11:42:57 10° 146° (SSE) 1,611 8.9 -9.7°
Sets 11:46:43 0° 105° (ESE) 2,477 11.7 -8.9°
